PDT5792 KCLT-KMOB

Flight info

Callsign PDT5792
Flight time N/A
Altitude 34000
Route ESTRR5 IPTAY CHOPZ SMAWG MGM SJI
Aircraft E145/M-SDFGIRW/S

Departure

Time N/A
Airport Charlotte Douglas International Airport (KCLT)

Arrival

Time 2026-05-04 18:15
Airport Mobile Regional Airport (KMOB)
Time Latitude Longitude Altitude Speed Heading
2026-05-04 17:17 33.84072 -83.71816 34112 ft 396 kts 242°
2026-05-04 17:18 33.78150 -83.82944 34104 ft 396 kts 242°
2026-05-04 17:19 33.72199 -83.94074 34107 ft 398 kts 242°
2026-05-04 17:20 33.66209 -84.05241 34104 ft 399 kts 241°
2026-05-04 17:20 33.61682 -84.13659 34102 ft 400 kts 242°
2026-05-04 17:21 33.55648 -84.24849 34106 ft 400 kts 242°
2026-05-04 17:22 33.52624 -84.30443 34100 ft 401 kts 242°
2026-05-04 17:23 33.46592 -84.41579 34109 ft 401 kts 242°
2026-05-04 17:24 33.42038 -84.49963 34104 ft 400 kts 242°
2026-05-04 17:25 33.35967 -84.61109 34107 ft 400 kts 242°
2026-05-04 17:26 33.29893 -84.72228 34104 ft 401 kts 241°
2026-05-04 17:27 33.22259 -84.86154 34097 ft 402 kts 242°
2026-05-04 17:28 33.16119 -84.97319 34104 ft 403 kts 242°
2026-05-04 17:29 33.06883 -85.14047 34098 ft 402 kts 242°
2026-05-04 17:31 32.98622 -85.27401 34101 ft 401 kts 236°
2026-05-04 17:32 32.89648 -85.39838 34084 ft 394 kts 236°
2026-05-04 17:33 32.82462 -85.49767 34065 ft 397 kts 236°
2026-05-04 17:34 32.75262 -85.59690 34098 ft 399 kts 236°
2026-05-04 17:35 32.66173 -85.72177 34111 ft 401 kts 236°
2026-05-04 17:36 32.62521 -85.77181 34073 ft 402 kts 236°
2026-05-04 17:36 32.58863 -85.82190 34098 ft 402 kts 236°
2026-05-04 17:37 32.55201 -85.87193 34084 ft 402 kts 236°
2026-05-04 17:37 32.51558 -85.92167 34095 ft 401 kts 236°
2026-05-04 17:38 32.47894 -85.97161 34086 ft 399 kts 237°
2026-05-04 17:38 32.44258 -86.02112 34088 ft 398 kts 237°
2026-05-04 17:39 32.38845 -86.09467 34077 ft 396 kts 237°
2026-05-04 17:39 32.35226 -86.14378 34079 ft 394 kts 237°
2026-05-04 17:40 32.31637 -86.19242 34092 ft 393 kts 237°
2026-05-04 17:40 32.28051 -86.24095 34082 ft 392 kts 237°
2026-05-04 17:41 32.24461 -86.28946 34078 ft 390 kts 237°
2026-05-04 17:41 32.20932 -86.33768 34090 ft 387 kts 239°
2026-05-04 17:42 32.17477 -86.38608 34086 ft 386 kts 239°
2026-05-04 17:42 32.14012 -86.43450 34091 ft 384 kts 239°
2026-05-04 17:43 32.10581 -86.48238 34083 ft 384 kts 239°
2026-05-04 17:43 32.07154 -86.53012 34076 ft 382 kts 239°
2026-05-04 17:44 32.03714 -86.57800 34078 ft 382 kts 239°
2026-05-04 17:44 32.00299 -86.62547 34070 ft 382 kts 239°
2026-05-04 17:45 31.96832 -86.67361 34094 ft 384 kts 239°
2026-05-04 17:45 31.93387 -86.72137 34087 ft 386 kts 238°
2026-05-04 17:46 31.89902 -86.76963 34091 ft 388 kts 239°
2026-05-04 17:46 31.86338 -86.81791 34084 ft 390 kts 238°
2026-05-04 17:47 31.82875 -86.86648 34081 ft 390 kts 239°
2026-05-04 17:47 31.79369 -86.91507 34076 ft 391 kts 239°
2026-05-04 17:48 31.75830 -86.96384 34082 ft 391 kts 239°
2026-05-04 17:48 31.72329 -87.01202 34086 ft 389 kts 239°
2026-05-04 17:49 31.68807 -87.06040 34079 ft 388 kts 239°
2026-05-04 17:49 31.65311 -87.10839 34080 ft 388 kts 239°
2026-05-04 17:50 31.61808 -87.15641 34079 ft 389 kts 239°
2026-05-04 17:50 31.58291 -87.20454 34082 ft 390 kts 239°
2026-05-04 17:51 31.54734 -87.25317 34041 ft 393 kts 239°
2026-05-04 17:51 31.51173 -87.30179 33973 ft 396 kts 239°
2026-05-04 17:52 31.47591 -87.35063 33614 ft 397 kts 239°
2026-05-04 17:52 31.45798 -87.37504 33347 ft 392 kts 239°
2026-05-04 17:52 31.44016 -87.39931 32913 ft 391 kts 239°
2026-05-04 17:53 31.42263 -87.42317 32462 ft 391 kts 239°
2026-05-04 17:53 31.40499 -87.44714 32252 ft 384 kts 238°
2026-05-04 17:53 31.38750 -87.47090 32030 ft 382 kts 238°
2026-05-04 17:53 31.37023 -87.49436 31814 ft 380 kts 238°
2026-05-04 17:54 31.35306 -87.51767 31593 ft 377 kts 238°
2026-05-04 17:54 31.33616 -87.54060 31375 ft 375 kts 238°
2026-05-04 17:54 31.31912 -87.56369 31164 ft 374 kts 238°
2026-05-04 17:54 31.30214 -87.58669 30944 ft 372 kts 238°
2026-05-04 17:55 31.28531 -87.60948 30709 ft 371 kts 238°
2026-05-04 17:55 31.26833 -87.63248 30323 ft 373 kts 238°
2026-05-04 17:55 31.25134 -87.65546 29931 ft 374 kts 237°
2026-05-04 17:55 31.23449 -87.67819 29557 ft 365 kts 237°
2026-05-04 17:56 31.21812 -87.70028 29174 ft 357 kts 237°
2026-05-04 17:56 31.20206 -87.72199 28692 ft 352 kts 237°
2026-05-04 17:56 31.18603 -87.74361 28182 ft 349 kts 237°
2026-05-04 17:56 31.17042 -87.76466 27680 ft 346 kts 237°
2026-05-04 17:57 31.15460 -87.78598 27172 ft 341 kts 236°
2026-05-04 17:57 31.13927 -87.80662 26669 ft 336 kts 236°
2026-05-04 17:57 31.12413 -87.82701 26167 ft 331 kts 236°
2026-05-04 17:57 31.10925 -87.84703 25671 ft 328 kts 236°
2026-05-04 17:58 31.09446 -87.86691 25168 ft 324 kts 236°
2026-05-04 17:58 31.07976 -87.88669 24659 ft 323 kts 236°
2026-05-04 17:58 31.06506 -87.90648 24156 ft 324 kts 236°
2026-05-04 17:58 31.05031 -87.92631 23646 ft 324 kts 235°
2026-05-04 17:59 31.03542 -87.94629 23128 ft 325 kts 235°
2026-05-04 17:59 31.02064 -87.96611 22620 ft 325 kts 235°
2026-05-04 17:59 30.99098 -88.00588 21525 ft 324 kts 234°
2026-05-04 18:00 30.97631 -88.02552 20888 ft 321 kts 234°
2026-05-04 18:00 30.96181 -88.04492 20265 ft 318 kts 234°
2026-05-04 18:00 30.94735 -88.06428 19637 ft 316 kts 233°
2026-05-04 18:00 30.93290 -88.08359 19010 ft 314 kts 233°
2026-05-04 18:01 30.91861 -88.10270 18227 ft 312 kts 232°
2026-05-04 18:01 30.90486 -88.12106 17487 ft 300 kts 233°
2026-05-04 18:01 30.89127 -88.13921 16736 ft 291 kts 232°
2026-05-04 18:02 30.86548 -88.17362 15255 ft 278 kts 232°
2026-05-04 18:02 30.85281 -88.19052 14576 ft 280 kts 232°
2026-05-04 18:02 30.84000 -88.20760 13855 ft 288 kts 231°
2026-05-04 18:02 30.82658 -88.22548 13128 ft 295 kts 231°
2026-05-04 18:03 30.81315 -88.24336 12410 ft 300 kts 230°
2026-05-04 18:03 30.79936 -88.26171 11644 ft 301 kts 230°
2026-05-04 18:03 30.78591 -88.27960 10888 ft 289 kts 230°
2026-05-04 18:03 30.77289 -88.29692 10049 ft 283 kts 230°
2026-05-04 18:04 30.76011 -88.31391 9202 ft 279 kts 229°
2026-05-04 18:04 30.74571 -88.32819 8363 ft 275 kts 206°
2026-05-04 18:04 30.70977 -88.32608 6793 ft 265 kts 148°
2026-05-04 18:05 30.69692 -88.31142 5968 ft 259 kts 130°
2026-05-04 18:05 30.68611 -88.29519 5293 ft 247 kts 128°
2026-05-04 18:05 30.67622 -88.27967 4801 ft 233 kts 127°
2026-05-04 18:05 30.66691 -88.26485 4388 ft 218 kts 127°
2026-05-04 18:06 30.65086 -88.23877 4029 ft 183 kts 118°
2026-05-04 18:06 30.64483 -88.22639 3834 ft 176 kts 127°
2026-05-04 18:06 30.63775 -88.21497 3580 ft 173 kts 128°
2026-05-04 18:07 30.63072 -88.20371 3328 ft 171 kts 127°
2026-05-04 18:07 30.62366 -88.19258 3083 ft 170 kts 127°
2026-05-04 18:07 30.61568 -88.18233 2879 ft 174 kts 143°
2026-05-04 18:07 30.60553 -88.17378 2669 ft 186 kts 144°
2026-05-04 18:08 30.59485 -88.16491 2458 ft 195 kts 145°
2026-05-04 18:08 30.58212 -88.15987 2207 ft 194 kts 181°
2026-05-04 18:08 30.56895 -88.16220 1972 ft 189 kts 189°
2026-05-04 18:08 30.55629 -88.16489 1866 ft 177 kts 189°
2026-05-04 18:09 30.53412 -88.16721 1856 ft 150 kts 154°
2026-05-04 18:09 30.52776 -88.14679 1890 ft 155 kts 62°
2026-05-04 18:10 30.53566 -88.13908 1872 ft 149 kts 17°
2026-05-04 18:10 30.54600 -88.13706 1873 ft 152 kts
2026-05-04 18:10 30.55676 -88.13586 1878 ft 157 kts 354°
2026-05-04 18:10 30.56614 -88.14130 1864 ft 152 kts 309°
2026-05-04 18:11 30.57085 -88.15200 1836 ft 148 kts 298°
2026-05-04 18:11 30.57792 -88.16072 1716 ft 151 kts 329°
2026-05-04 18:11 30.58736 -88.16603 1684 ft 150 kts 338°
2026-05-04 18:11 30.59724 -88.17056 1684 ft 151 kts 338°
2026-05-04 18:12 30.60648 -88.17651 1679 ft 153 kts 327°
2026-05-04 18:12 30.61557 -88.18314 1665 ft 156 kts 327°
2026-05-04 18:12 30.62468 -88.18996 1596 ft 154 kts 325°
2026-05-04 18:12 30.63346 -88.19696 1407 ft 149 kts 324°
2026-05-04 18:13 30.64173 -88.20393 1185 ft 148 kts 322°
2026-05-04 18:13 30.65004 -88.21107 998 ft 150 kts 324°
2026-05-04 18:13 30.66730 -88.22487 608 ft 150 kts 323°
2026-05-04 18:14 30.67568 -88.23186 432 ft 147 kts 324°
2026-05-04 18:14 30.68399 -88.23877 244 ft 146 kts 323°
2026-05-04 18:14 30.69151 -88.24503 209 ft 108 kts 324°
2026-05-04 18:15 30.69833 -88.25085 202 ft 13 kts 270°
2026-05-04 18:15 30.69793 -88.25154 201 ft 0 kts 233°
2026-05-04 18:16 30.69788 -88.25163 201 ft 2 kts 233°
2026-05-04 18:16 30.69760 -88.25178 201 ft 10 kts 171°
2026-05-04 18:16 30.69682 -88.25123 199 ft 14 kts 145°
2026-05-04 18:17 30.69480 -88.24963 196 ft 19 kts 146°
2026-05-04 18:17 30.69366 -88.24873 198 ft 19 kts 146°
2026-05-04 18:17 30.69139 -88.24701 205 ft 18 kts 146°
2026-05-04 18:18 30.69036 -88.24618 209 ft 17 kts 145°
2026-05-04 18:18 30.68939 -88.24539 211 ft 17 kts 145°
2026-05-04 18:18 30.68839 -88.24457 212 ft 17 kts 144°
2026-05-04 18:18 30.68738 -88.24371 214 ft 18 kts 143°
2026-05-04 18:19 30.68563 -88.24266 215 ft 10 kts 263°
2026-05-04 18:19 30.68562 -88.24359 215 ft 12 kts 269°
2026-05-04 18:19 30.68561 -88.24474 215 ft 15 kts 270°
2026-05-04 18:20 30.68557 -88.24616 213 ft 12 kts 249°
2026-05-04 18:20 30.68475 -88.24649 212 ft 14 kts 180°
2026-05-04 18:20 30.68397 -88.24610 211 ft 9 kts 117°
2026-05-04 18:20 30.68352 -88.24577 212 ft 5 kts 165°
2026-05-04 18:21 30.68325 -88.24568 212 ft 0 kts 166°